Regional Weather Roundup
Issued by NWS

Home | Current Version | Previous Version | Text Only | Print | Product List | Glossary On
Versions: 1 2 3 4 5 6 7 8 9 10 11 12 13 14 15 16 17 18 19 20 21 22 23 24 25 26 27 28 29 30 31 32 33 34 35 36 37 38 39 40 41 42 43 44 45 46 47 48 49 50
425
ASUS44 KJAN 300603
RWRMS

MISSISSIPPI HOURLY WEATHER ROUNDUP
NATIONAL WEATHER SERVICE JACKSON MS
100 AM CDT MON MAR 30 2015

NOTE: "FAIR: INDICATES FEW OR NO CLOUDS BELOW 12,000 FEET WITH NO
SIGNIFICANT WEATHER AND/OR OBSTRUCTIONS TO VISIBILITY.

MSZ001>002-007>008-010>013-018>021-025>028-034>036-300700-
NORTHWEST MISSISSIPPI

CITY           SKY/WX    TMP DP  RH WIND       PRES   REMARKS
CLARKSDALE       N/A     64  63  94 SW8       30.07R
CLEVELAND      FAIR      67  59  76 SW16      30.05S
GREENWOOD      CLEAR     68  54  60 SW16      30.08F
6HR MIN TEMP:  63; 6HR MAX TEMP:  72;

GREENVILLE     CLEAR     68  57  68 SW18G29   30.06S
6HR MIN TEMP:  66; 6HR MAX TEMP:  72;

OLIVE BRANCH   CLOUDY    57  57 100 CALM      30.04F
OXFORD         FAIR      63  52  67 SW8       30.07R
TUNICA         MOCLDY    61  55  82 W3        30.05F
$$

MSZ003>006-009-014>017-022>024-029>033-037>039-300700-
NORTHEAST MISSISSIPPI

CITY           SKY/WX    TMP DP  RH WIND       PRES   REMARKS
COLUMBUS AFB   CLEAR     62  55  76 S13       30.08F
6HR MIN TEMP:  56; 6HR MAX TEMP:  65; 6HR PCP: TRACE;

CORINTH        MOCLDY    57  52  82 N15G33    30.08R THUNDER
GOLDN TRIANGLE CLEAR     63  55  77 S16G24    30.09F
STARKVILLE     FAIR      63  57  82 SW13G21   30.10F
TUPELO         MOCLDY    62  52  69 SW13      30.05S
6HR MIN TEMP:  58; 6HR MAX TEMP:  65;

$$

MSZ040-058-300700-
CENTRAL MISSISSIPPI

CITY           SKY/WX    TMP DP  RH WIND       PRES   REMARKS
JACKSON INTL   PTCLDY    62  58  86 S8        30.17F
6HR MIN TEMP:  61; 6HR MAX TEMP:  75;

JACKSON HAWKNS PTCLDY    62  58  86 S7        30.18S
6HR MIN TEMP:  62; 6HR MAX TEMP:  75;

MERIDIAN KEY   CLOUDY    62  57  83 S13       30.17F
6HR MIN TEMP:  61; 6HR MAX TEMP:  69;

MERIDIAN NAS   NOT AVBL
RAYMOND        FAIR      64  59  82 S3        30.17S
VICKSBURG      CLEAR     66  57  72 S6        30.17S
6HR MIN TEMP:  66; 6HR MAX TEMP:  77;

$$

MSZ059>079-300700-
SOUTH MISSISSIPPI

CITY           SKY/WX    TMP DP  RH WIND       PRES   REMARKS
BROOKHAVEN     MOCLDY    64  61  88 SW6       30.21R
HATTIESBURG    CLEAR     61  58  90 CALM      30.20S
6HR MIN TEMP:  60; 6HR MAX TEMP:  68;

MCCOMB         MOCLDY    63  58  83 S5        30.19R
6HR MIN TEMP:  63; 6HR MAX TEMP:  72;

NATCHEZ        CLOUDY    66  59  77 SW8       30.20R
6HR MIN TEMP:  66; 6HR MAX TEMP:  75;

PINE BELT      CLEAR     61  55  82 S5        30.21R
6HR MIN TEMP:  61; 6HR MAX TEMP:  68;

$$

MSZ080>082-300700-
COASTAL MISSISSIPPI

CITY           SKY/WX    TMP DP  RH WIND       PRES   REMARKS
BILOXI         PTCLDY    67  63  88 S14G22    30.19F
6HR MIN TEMP:  66; 6HR MAX TEMP:  67;

PASCAGOULA     CLEAR     66  61  84 S9G17     30.20F
6HR MIN TEMP:  63; 6HR MAX TEMP:  66;

GULFPORT       PTCLDY    67  62  84 S8        30.20F
6HR MIN TEMP:  67; 6HR MAX TEMP:  68;

$$



USA.gov is the U.S. government's official web portal to all federal, state and local government web resources and services.